Location: Bercimuel
(41.3983°N, 3.5711°W)
Time: 07:51:08
(UTC+00:00)

Longmarch 3A Rocket - Pass Details

Date: 15 May 2026
Orbit: 264 x 18566 km, 27.3° (Epoch: 3 June)

Event Time Altitude Azimuth Distance (km) Brightness Sun altitude
Rises 20:21:59 0° 255° (WSW) 7,173 8.1 -9.7°
Reaches altitude 10° 20:30:11 10° 241° (WSW) 3,783 6.4 -10.9°
Maximum altitude 20:35:02 17° 204° (SSW) 1,985 4.5 -11.7°
Enters shadow 20:37:15 12° 167° (SSE) 1,743 3.9 -12.0°
